Hourly Weather Roundup
Issued by NWS Central Illinois

Home | Current Version | Previous Version | Text Only | Print | Product List | Glossary On
Versions: 1 2 3 4 5 6 7 8 9 10 11 12 13 14 15 16 17 18 19 20 21 22 23 24 25 26 27 28 29 30 31 32 33 34 35 36 37 38 39 40 41 42 43 44 45 46 47 48 49 50
000
NZUS43 KILX 270910
HWRILX

AREA WEATHER ROUNDUP
NATIONAL WEATHER SERVICE, LINCOLN IL
300 AM CST FRI FEB 27 2015


CITY           SKY/WX    TMP DP  RH WIND       PRES   REMARKS
BLOOMINGTON    CLEAR      0  -6  75 NW9       30.49R WCI -15
CHAMPAIGN      MOCLDY     1  -4  79 W9        30.48R WCI -14
DECATUR        CLEAR      2  -5  72 NW13      30.51S WCI -15
FLORA          FLURRIES  11   7  83 NW7       30.52S WCI   0
GALESBURG      PTCLDY   -10 -14  84 W7        30.53S WCI -26
JACKSONVILLE   CLEAR     -7 -13  77 NW6       30.56S WCI -20
LACON          CLEAR    -10 -15  77 CALM      30.53S
LAWRENCEVILLE  MOCLDY    10   2  69 NW9       30.51R WCI  -3
LITCHFIELD     CLEAR     -2  -9  74 NW7       30.53F WCI -16
$$


CITY           SKY/WX    TMP DP  RH WIND       PRES   REMARKS
LINCOLN        PTCLDY     1  -5  74 W6        30.57R WCI -10
MACOMB         CLEAR     -9 -13  83 W12       30.57S WCI -28
MATTOON        CLOUDY     8   2  76 NW14      30.49R WCI  -8
MT CARMEL AP   MOCLDY    16   5  62 N13       30.50S WCI   2
OLNEY-NOBLE AP CLOUDY    12   9  85 N7        30.52S WCI   2
PARIS          CLOUDY     8   3  80 W3        30.50R
PEORIA         CLEAR     -2  -9  72 CALM      30.54R
PONTIAC        CLEAR     -4  -8  81 W6        30.51R WCI -16
RANTOUL        FAIR       1  -4  77 NW10      30.48S WCI -14
ROBINSON       CLOUDY    10   3  75 NW7       30.52S WCI  -2
SPRINGFIELD    CLEAR     -1  -9  68 NW8       30.55R WCI -15
TAYLORVILLE    CLEAR      0  -6  78 W3        30.54S
$$

...REGIONAL REPORTS...


CITY           SKY/WX    TMP DP  RH WIND       PRES   REMARKS
CHICAGO O`HARE CLEAR      0  -8  69 NW10      30.45R WCI -16
KANKAKEE       CLEAR     -6 -10  81 W7        30.48R WCI -20
MOLINE         FAIR      -8 -14  74 W7        30.54S WCI -23
MOUNT VERNON   MOCLDY    10   1  67 CALM      30.52S
PITTSFIELD     CLEAR     -1  -8  72 W7        30.57S WCI -14
QUINCY         CLEAR     -4 -10  75 NW8       30.56F WCI -19
ROCKFORD       CLEAR    -11 -16  78 CALM      30.50R
$$


CITY           SKY/WX    TMP DP  RH WIND       PRES   REMARKS
BURLINGTON     CLEAR     -6 -11  79 NW9       30.55S WCI -23
CEDAR RAPIDS   CLEAR    -13 -17  82 NW8       30.53R WCI -30
DES MOINES     CLEAR     -5 -11  75 W6        30.57S WCI -18
KIRKSVILLE     CLEAR     -2  -6  83 W3        30.57S
OTTUMWA        CLEAR     -9 -13  83 NW8       30.57R WCI -25
ST LOUIS       CLEAR      5  -4  66 N9        30.57S WCI  -9
$$


CITY           SKY/WX    TMP DP  RH WIND       PRES   REMARKS
TERRE HAUTE    MOCLDY     8   1  73 NW3       30.49R
EVANSVILLE     CLOUDY    17   8  67 NW3       30.51R
INDIANAPOLIS   MOCLDY     4   0  83 NW6       30.43R WCI  -7
LAFAYETTE      PTCLDY     3  -4  72 W5        30.47R WCI  -6
MADISON        CLEAR     -2 -10  69 W5        30.45S WCI -12
MILWAUKEE      CLEAR      4  -8  57 W8        30.44S WCI  -9
$$




USA.gov is the U.S. government's official web portal to all federal, state and local government web resources and services.